Location: Sinnemahoning State Park
(41.4031°N, 78.0230°W)
Time: 15:10:12
(UTC-04:00)

Daily predictions for brighter satellites

Satellite Brightness Start Highest point End
(mag) Time Altitude Azimuth Time Altitude Azimuth Time Altitude Azimuth
H-2A R/B 2.8 20:25:40 10° SSE 20:29:36 89° WSW 20:33:29 10° NNW
Meteor 2-3 Rocket 3.9 20:25:10 10° NNW 20:30:53 83° W 20:36:39 10° S
Cosmos 1302 Rocket 4.0 20:26:33 10° S 20:31:39 61° ESE 20:36:47 10° NNE
Envisat 3.8 20:27:18 10° SE 20:31:47 32° ENE 20:36:16 10° N
Cosmos 1315 Rocket 3.0 20:31:14 10° N 20:35:16 54° ENE 20:39:13 10° SSE
Cosmos 2360 Rocket 3.9 20:36:19 10° ESE 20:38:08 12° E 20:39:58 10° ENE
Cosmos 1980 Rocket 2.3 20:32:34 10° SSW 20:38:14 88° WNW 20:43:59 10° NNE
USA 234 3.5 20:36:06 10° ESE 20:42:30 60° NE 20:48:55 10° NW
Cosmos 2026 Rocket 4.4 20:36:46 10° N 20:42:40 42° ENE 20:48:26 10° SSE
OTV 4 3.0 20:45:47 10° SW 20:46:40 11° SSW 20:47:33 10° S
Intercosmos 25 Rocket 4.0 20:44:17 10° SSE 20:47:01 27° E 20:50:13 10° NNE
Cosmos 1825 3.0 20:45:37 10° NNE 20:49:04 32° ENE 20:52:20 11° SE
CZ-2D R/B 3.4 20:46:07 10° S 20:50:00 77° WSW 20:53:54 10° NNW
Nadezhda 4 Rocket 4.5 20:47:34 10° NNW 20:53:47 67° W 21:00:02 10° S
SL-16 R/B 2.5 20:49:25 10° S 20:54:45 44° ESE 21:00:06 10° NE
ATLAS 5 CENTAUR R/B 3.6 20:56:22 10° NNW 21:01:26 29° NE 21:06:11 13° E
Cosmos 1862 4.2 20:58:18 10° NNE 21:01:57 32° ENE 21:04:34 16° SE
Cosmos 1634 Rocket 4.0 20:55:55 10° S 21:02:11 79° E 21:08:32 10° N
Cosmos 1092 Rocket 4.2 20:57:12 10° N 21:03:33 79° W 21:09:53 10° S
Cosmos 1707 Rocket 3.9 20:59:54 10° SSW 21:04:20 69° W 21:08:45 10° N
Helios 1B rocket 2.4 21:00:15 10° NNE 21:04:20 67° ESE 21:08:24 10° S
Lacrosse 4 Rocket 1.8 21:01:25 10° NNW 21:05:39 51° ENE 21:08:47 18° SE
ERS-1 Rocket 3.8 21:02:10 15° ESE 21:05:40 32° ENE 21:10:06 10° N
USA 186 2.1 21:03:30 10° S 21:06:07 52° W 21:08:56 10° NNW
Cosmos 1655 Rocket 4.2 21:03:14 10° N 21:09:32 56° E 21:15:37 11° SSE
ERBS 2.3 21:07:06 10° NW 21:10:34 86° SW 21:12:44 21° SE
Cosmos 1733 Rocket 3.4 21:06:46 10° N 21:11:04 45° ENE 21:14:14 17° SSE
Meteor 2-20 Rocket 4.4 21:05:30 10° N 21:11:37 75° E 21:17:44 10° SSE
SAR-Lupe-4 3.5 21:08:07 10° SSE 21:11:42 87° WSW 21:15:19 10° NNW
Cosmos 1939 Rocket 2.9 21:08:26 13° SSE 21:11:55 60° ENE 21:15:53 10° N
CENTAUR R/B 4.3 21:07:37 10° WSW 21:13:16 36° NW 21:19:38 10° NNE
Cosmos 1862 Rocket 3.9 21:13:12 10° SSE 21:17:27 46° E 21:21:45 10° NNE
SeaSat 1 3.8 21:17:14 16° E 21:19:54 25° NE 21:23:54 10° N
Cosmos 1992 Rocket 4.0 21:19:11 10° S 21:24:17 58° ESE 21:29:27 10° NNE
Cosmos 1408 2.6 21:20:53 10° N 21:24:36 84° W 21:27:28 16° S
ORS 1 (USA 231) 4.4 21:22:16 10° W 21:25:21 69° S 21:26:23 37° ESE
Atlas Centaur 2 3.8 21:22:19 10° SW 21:28:19 28° SSE 21:31:33 22° SE
Abrixas rocket 3.8 21:29:43 10° W 21:32:46 34° NNW 21:35:48 10° NE
Cosmos 2242 Rocket 4.0 21:31:24 10° SSW 21:35:53 66° W 21:40:22 10° N
Cosmos 1703 Rocket 4.5 21:37:04 28° E 21:37:29 29° E 21:41:19 10° NNE
Helios 1A 4.3 21:37:14 10° SSW 21:41:12 39° W 21:45:12 10° NNW
Cosmos 2279 Rocket 4.0 21:37:12 10° S 21:43:27 85° W 21:49:43 10° N
Cosmos 1503 Rocket 4.4 21:39:06 10° NNW 21:44:17 60° WSW 21:48:10 17° S
MetOp-A 4.2 21:47:17 31° SE 21:49:42 59° ENE 21:54:58 10° N
Cosmos 1867 4.2 21:44:48 10° NNW 21:50:02 44° NE 21:52:05 31° E
Resurs 01 Rocket 4.4 21:50:44 10° WSW 21:53:03 14° W 21:55:24 10° WNW
H-2A R/B 3.0 21:52:50 27° E 21:53:45 28° ENE 21:57:56 10° N
OAO 3 Rocket 3.8 21:51:23 10° WSW 21:55:58 40° S 21:56:39 38° SSE
YAOGAN 6 3.0 21:56:56 36° SSW 21:58:13 61° W 22:01:49 10° NNW
SPOT 5 2.9 22:04:10 47° SE 22:05:20 61° ENE 22:09:59 10° N
Cosmos 968 Rocket 3.5 22:00:17 10° NNW 22:05:28 65° ENE 22:06:50 46° SE
Cosmos 2263 Rocket 2.3 22:00:26 10° NNW 22:06:00 73° WSW 22:08:25 35° S
COSMOS 2428 3.6 22:10:12 30° E 22:10:12 30° E 22:14:07 10° NE
Meteor 2-10 Rocket 3.7 22:05:36 18° S 22:10:05 89° W 22:15:56 10° N
Cosmos 2322 Rocket 3.3 22:05:42 10° SW 22:11:02 44° WNW 22:16:24 10° NNE
Sich 1 Rocket 3.6 22:11:06 10° N 22:15:35 82° W 22:16:31 55° S
Cosmos 2360 Rocket 2.1 22:15:49 11° SSW 22:21:14 90° NNW 22:26:57 10° NNE
H-2A R/B 3.3 22:23:59 29° NE 22:23:59 29° NE 22:27:08 10° N
USA 234 4.0 22:22:54 28° S 22:25:38 41° SW 22:31:46 10° WNW
Cosmos 1908 Rocket 3.9 22:23:51 10° NNW 22:28:07 57° W 22:28:49 50° SW
Cosmos 2322 3.6 22:25:27 23° SSW 22:29:06 89° E 22:34:51 10° NNE
Meteor 1-20 Rocket 4.2 22:24:00 10° N 22:29:31 62° ENE 22:30:09 57° ESE
NOAA 11 4.5 22:28:03 38° SSW 22:30:04 63° WSW 22:35:32 10° NNW
USA 245 4.3 22:30:43 47° S 22:32:29 78° WSW 22:37:44 10° NNW
Meteor 1-22 4.5 22:32:36 10° N 22:37:59 73° E 22:38:20 70° ESE
SL-16 R/B 4.2 22:34:10 10° WSW 22:39:01 28° NW 22:43:53 10° N
SPOT 1/Viking Rocket 3.4 22:40:22 72° S 22:40:55 87° WSW 22:46:11 10° NNW
Cosmos 1782 Rocket 3.7 22:37:50 10° NNW 22:41:59 70° WNW 22:41:59 70° WNW
Lacrosse 4 Rocket 3.8 22:41:23 10° WNW 22:43:57 15° WSW 22:45:08 14° SW
Okean 2 Rocket 3.3 22:40:56 10° N 22:44:59 70° N 22:44:59 70° N
ATLAS 5 CENTAUR R/B 2.6 22:40:34 10° NW 22:46:35 65° WSW 22:47:45 55° S
Cosmos 2333 Rocket 3.8 22:52:13 22° ENE 22:52:13 22° ENE 22:54:36 10° NE
Cosmos 2333 4.4 22:51:48 57° ENE 22:51:48 57° ENE 22:56:43 10° NNE
Cosmos 1782 4.3 22:53:34 32° NNE 22:53:34 32° NNE 22:55:50 10° N
Landsat 7 3.9 22:54:28 70° N 22:54:28 70° N 22:58:43 10° NNW
ARGOS 3.7 22:52:59 44° SW 22:54:00 50° W 22:59:13 10° NNW
Milstar 3 4.3 22:49:47 10° WSW 22:53:10 18° SSW 22:53:10 18° SSW
Cosmos 2237 Rocket 4.1 22:59:46 16° ENE 22:59:46 16° ENE 23:01:16 10° NE
SeaSat 1 3.0 22:57:02 47° WSW 22:57:09 48° WSW 23:01:57 10° NW
Cosmos 2278 Rocket 3.3 22:55:06 10° N 23:00:04 31° NE 23:00:07 31° ENE
Cosmos 1417 Rocket 4.4 23:03:56 70° E 23:03:56 70° E 23:10:14 10° NNE
Cosmos 1745 Rocket 4.4 22:59:37 10° N 23:05:30 48° ENE 23:05:30 48° ENE
Cosmos 1777 Rocket 4.1 23:01:44 10° NNW 23:06:40 70° WNW 23:06:40 70° WNW
Okean 1-7 4.1 23:07:56 41° WNW 23:07:56 41° WNW 23:11:58 10° N
Terra 2.3 23:10:04 56° N 23:10:04 56° N 23:13:51 10° N
NOSS 3-1 (C) 4.3 23:11:31 36° ENE 23:11:31 36° ENE 23:15:24 10° NE
Cosmos 1844 Rocket 2.7 23:03:50 10° NNW 23:09:04 76° NNE 23:09:04 76° NNE
Meteor 1-27 Rocket 4.3 23:12:59 47° NE 23:12:59 47° NE 23:17:14 10° NNE
USA 229 DEB 4.0 23:05:48 10° SW 23:12:34 66° NW 23:19:30 10° NNE
USA 229 4.0 23:05:53 10° SW 23:12:39 66° NW 23:19:36 10° NNE
Atlas Centaur 2 4.0 23:10:04 10° WSW 23:14:12 29° SW 23:14:12 29° SW
SL-19 R/B 4.4 23:18:07 10° NNE 23:24:12 81° WNW 23:24:12 81° WNW
Cosmos 2219 Rocket 2.8 23:28:37 48° NNE 23:28:37 48° NNE 23:32:37 10° NNE
CZ-4C R/B 3.3 23:24:08 10° NNW 23:31:01 51° NE 23:32:09 47° ENE
H-2A R/B 3.3 23:33:27 33° W 23:33:27 33° W 23:37:32 10° NNW
Meteor 1-11 Rocket 4.0 23:28:37 10° N 23:33:08 61° N 23:33:08 61° N
ASTEX 1 4.5 23:43:30 42° NW 23:43:30 42° NW 23:47:15 10° NNW
Cosmos 1553 Rocket 4.2 23:48:00 67° WNW 23:48:00 67° WNW 23:54:00 10° N
H-2A R/B 4.5 23:24:28 10° W 23:51:40 34° SW 23:51:40 34° SW
COSMOS 2428 3.9 23:52:07 34° W 23:53:18 37° WNW 23:58:35 10° N
